Regional Weather Roundup
Issued by NWS

Home | Current Version | Previous Version | Graphics & Text | Print | Product List | Glossary On
Versions: 1 2 3 4 5 6 7 8 9 10 11 12 13 14 15 16 17 18 19 20 21 22 23 24 25 26 27 28 29 30 31 32 33 34 35 36 37 38 39 40 41 42 43 44 45 46 47 48 49 50
000
ASUS43 KLOT 292212
RWRIL

ILLINOIS REGIONAL WEATHER ROUNDUP
NATIONAL WEATHER SERVICE CHICAGO/ROMEOVILLE IL
500 PM CDT THU SEP 29 2016

NOTE: "FAIR" INDICATES FEW OR NO CLOUDS BELOW 12,000 FEET WITH NO
SIGNIFICANT WEATHER AND/OR OBSTRUCTIONS TO VISIBILITY.

* THESE STATIONS ARE NOT UNDER NWS QUALITY CONTROL. THEY ALSO MAY NOT
  REPORT WEATHER SUCH AS PRECIPITATION OR FOG.

ILZ001-002-007-009-015-016-024-292300-
NORTHWEST ILLINOIS

CITY           SKY/WX    TMP DP  RH WIND       PRES   REMARKS
MOLINE         CLOUDY    73  51  46 NE16G23   30.21S
STERLING*      LGT RAIN  65  57  75 N12       30.23R
SAVANNA*       CLOUDY    71  52  51 NE15G23   30.23R
$$

ILZ003-004-008-010-011-017-018-292300-
NORTH CENTRAL ILLINOIS

CITY           SKY/WX    TMP DP  RH WIND       PRES   REMARKS
ROCKFORD       PTSUNNY   67  54  63 NE18G29   30.25S
FREEPORT*      CLOUDY    65  54  66 E12G21    30.27R
ROCHELLE*      CLOUDY    65  56  70 NE17G25   30.24R
DE KALB*       LGT RAIN  61  58  89 NE12G23   30.24R
$$

ILZ005-006-012>014-019>023-292300-
NORTHEAST ILLINOIS

CITY           SKY/WX    TMP DP  RH WIND       PRES   REMARKS
CHICAGO-OHARE  PTSUNNY   64  57  78 NE17G23   30.20R
CHICAGO-MIDWAY PTSUNNY   66  57  72 NE18      30.18R
AURORA         CLOUDY    63  58  83 N16       30.21R
LANSING*       PTSUNNY   64  60  86 NE17G26   30.17R
JOLIET*        CLOUDY    67  59  73 NE15G24   30.18R
WAUKEGAN       CLOUDY    62  58  86 NE8       30.23S
DUPAGE AIRPORT PTSUNNY   63  58  83 N13       30.20S
KANKAKEE*      RAIN      63  59  85 NE9G18    30.16R
WHEELING       CLOUDY    63  57  81 NE13      30.23R
MORRIS*        CLOUDY    65  60  85 N3        30.17S
ROMEOVILLE*    CLOUDY    65  60  82 NE15G28   30.18R
NORTHERLY ISL    N/A     64  58  80 N15         N/A
$$

LMZ740>746-292300-
SOUTHERN LAKE MICHIGAN

STATION/POSITION SKY/WX   TEMP    WIND        PRES    VSBY  WAVE
                          AIR SEA DIR/SP/G                  HT/PER
                          (F)     (DEG/KT/KT) (MB)    (MI)  (FT/S)
SOUTHERN BUOY              65 69   70/ 21/ 25 1022.7R         7/ 7
WILMETTE HARBOR            62 56   70/ 17/ 21   N/A           7/ 6
HARRISON CRIB              65      40/ 24/ 26   N/A
BURNHAM HARBOR             63      40/ 15/ 18   N/A
CALUMET HARBOR             65      20/ 17/ 23   N/A
BURNS HARBOR               65      40/ 25/ 27 1021.0R
MICHIGAN CITY              63      10/ 26/ 30   N/A
MICHIGAN CITY 6N           64 65   40/ 23/ 29   N/A           9/ 7
ST. JOSEPH                 62 63   30/ 17/ 21 1022.1          6/ 6
$$

ILZ025>027-034>036-040-047-049-050-058-095>099-292300-
WEST-CENTRAL ILLINOIS

CITY           SKY/WX    TMP DP  RH WIND       PRES   REMARKS
QUINCY         PTSUNNY   73  49  42 N16       30.18S
GALESBURG*     CLOUDY    69  54  57 N16       30.20R
MACOMB*        CLOUDY    71  53  52 N15       30.21R
JACKSONVILLE*  CLOUDY    67  55  63 N9G18     30.17S
PITTSFIELD*    CLOUDY    70  54  55 N7        30.18S
$$

ILZ028>032-037-038-041>044-048-051>054-059>061-292300-
CENTRAL ILLINOIS

CITY           SKY/WX    TMP DP  RH WIND       PRES   REMARKS
PONTIAC        CLOUDY    65  63  95 N18       30.17R
BLOOMINGTON    PTSUNNY   63  60  90 N16       30.15S
DECATUR        CLOUDY    63  59  87 N17       30.13S
PEORIA         CLOUDY    66  60  81 NE10      30.18R
LACON*         CLOUDY    64  56  74 NE14G20   30.19R
LINCOLN*       LGT RAIN  62  61  99 N6        30.16S
SPRINGFIELD    CLOUDY    64  58  80 N8        30.16S
TAYLORVILLE    CLOUDY    64  59  82 N13       30.14S
$$

ILZ033-039-045-046-055>057-062-063-292300-
EAST-CENTRAL ILLINOIS

CITY           SKY/WX    TMP DP  RH WIND       PRES   REMARKS
CHAMPAIGN      CLOUDY    72  53  51 N8        30.11S
RANTOUL*       MOSUNNY   72  55  55 N9        30.11S
MATTOON        PTSUNNY   68  53  58 N8        30.10S
PARIS*         MOSUNNY   70  52  53 CALM      30.11R
$$

ILZ079-100>102-292300-
SOUTHWEST ILLINOIS

CITY           SKY/WX    TMP DP  RH WIND       PRES   REMARKS
ALTON          CLOUDY    61  54  77 NW10G20   30.16S
BELLEVILLE     CLOUDY    62  60  94 N5        30.14S
CAHOKIA*       CLOUDY    68  53  58 NW14      30.15S
SPARTA*        DRIZZLE   58  58  97 CALM      30.16S
$$

ILZ064>066-069>071-074>076-080>082-084>086-088>090-092>094-292300-
SOUTH-CENTRAL ILLINOIS

CITY           SKY/WX    TMP DP  RH WIND       PRES   REMARKS
CARBONDALE     CLOUDY    61  58  90 NW15G23   30.13F
CAIRO*         CLOUDY    65  56  70 NW15      30.13R
EFFINGHAM*     PTSUNNY   70  55  58 NW6       30.12S
MARION         PTSUNNY   63  59  88 N14       30.13S
MT. VERNON     CLOUDY    64  54  68 CALM      30.12S
CENTRALIA*     CLOUDY    64  59  81 NW10      30.12S
SALEM*         PTSUNNY   67  56  69 NW8       30.12S
METROPOLIS*    CLOUDY    67  55  65 NW7       30.11S
$$

ILZ067-068-072-073-078-083-087-091-292300-
SOUTHEAST ILLINOIS

CITY           SKY/WX    TMP DP  RH WIND       PRES   REMARKS
LAWRENCEVILLE  MOSUNNY   69  52  54 N7        30.09S
FLORA*         PTSUNNY   67  56  67 NW6       30.11S
FAIRFIELD*     CLOUDY    66  55  69 NW5       30.09S
HARRISBURG*    CLOUDY    67  56  66 N6        30.11R
ROBINSON*      CLOUDY    67  52  57 NE9       30.10S
CARMI*         PTSUNNY   70  53  56 NW5       30.09S
$$

ABBREVIATIONS USED IN REMARKS
   TC - TEMPERATURE IN CELSIUS
  WCI - WIND CHILL INDEX
   HX - HEAT INDEX
  VSB - VISIBILITY
$$




USA.gov is the U.S. government's official web portal to all federal, state and local government web resources and services.